• En España
  • Lista de países
  • Para 7 días
  • Temperatura del agua
  • Mapa Satelital
  • El tiempo en el mapa
  • Informadores
  • user-avatar
    Iniciar sesión

    Tiempo cada hora Namibe

    Hoy, 23 Mayo, Miércoles

    Tiempo Temperatura Precipitaciones Viento Presión Humedad
    00:00 +28°C° 0 mm 2 mps 759 mmHg 40%
    01:00 +29°C° 0 mm 2 mps 760 mmHg 39%
    02:00 +28°C° 0 mm 2 mps 759 mmHg 39%
    03:00 +28°C° 0 mm 3 mps 759 mmHg 38%
    04:00 +28°C° 0 mm 3 mps 759 mmHg 37%
    05:00 +29°C° 0 mm 3 mps 759 mmHg 36%
    06:00 +29°C° 0 mm 3 mps 759 mmHg 35%
    07:00 +29°C° 0 mm 3 mps 760 mmHg 34%
    08:00 +31°C° 0 mm 3 mps 760 mmHg 30%
    09:00 +34°C° 0 mm 3 mps 759 mmHg 26%
    10:00 +36°C° 0 mm 3 mps 759 mmHg 23%
    11:00 +37°C° 0 mm 3 mps 759 mmHg 20%
    12:00 +40°C° 0 mm 4 mps 758 mmHg 17%
    13:00 +41°C° 0 mm 4 mps 758 mmHg 15%
    14:00 +41°C° 0 mm 4 mps 757 mmHg 16%
    15:00 +40°C° 0 mm 5 mps 757 mmHg 18%
    16:00 +40°C° 0 mm 5 mps 757 mmHg 20%
    17:00 +36°C° 0 mm 5 mps 757 mmHg 27%
    18:00 +34°C° 0 mm 5 mps 757 mmHg 34%
    19:00 +32°C° 0 mm 5 mps 758 mmHg 41%
    20:00 +32°C° 0 mm 4 mps 758 mmHg 41%
    21:00 +30°C° 0 mm 3 mps 759 mmHg 42%
    22:00 +30°C° 0 mm 2 mps 759 mmHg 42%
    23:00 +30°C° 0 mm 2 mps 759 mmHg 42%

    Mañana, 24 Mayo, Jueves

    Tiempo Temperatura Precipitaciones Viento Presión Humedad
    00:00 +29°C° 0 mm 1 mps 759 mmHg 42%
    01:00 +29°C° 0 mm 1 mps 759 mmHg 41%
    02:00 +28°C° 0 mm 1 mps 759 mmHg 41%
    03:00 +28°C° 0 mm 1 mps 759 mmHg 41%
    04:00 +28°C° 0 mm 1 mps 758 mmHg 40%
    05:00 +28°C° 0 mm 1 mps 759 mmHg 37%
    06:00 +28°C° 0 mm 2 mps 759 mmHg 35%
    07:00 +28°C° 0 mm 2 mps 759 mmHg 32%
    08:00 +30°C° 0 mm 2 mps 759 mmHg 27%
    09:00 +34°C° 0 mm 2 mps 759 mmHg 22%
    10:00 +37°C° 0 mm 2 mps 759 mmHg 16%
    11:00 +38°C° 0 mm 3 mps 759 mmHg 15%
    12:00 +39°C° 0 mm 3 mps 758 mmHg 14%
    13:00 +41°C° 0 mm 4 mps 757 mmHg 12%
    14:00 +41°C° 0 mm 4 mps 757 mmHg 14%
    15:00 +40°C° 0 mm 5 mps 757 mmHg 17%
    16:00 +39°C° 0 mm 5 mps 756 mmHg 19%
    17:00 +36°C° 0 mm 4 mps 757 mmHg 25%
    18:00 +33°C° 0 mm 4 mps 757 mmHg 32%
    19:00 +30°C° 0 mm 3 mps 757 mmHg 38%
    20:00 +30°C° 0 mm 2 mps 758 mmHg 39%
    21:00 +29°C° 0 mm 2 mps 758 mmHg 40%
    22:00 +29°C° 0 mm 1 mps 758 mmHg 41%
    23:00 +29°C° 0 mm 1 mps 758 mmHg 40%

    Pasado mañana, 25 Mayo, Viernes

    Tiempo Temperatura Precipitaciones Viento Presión Humedad
    00:00 +28°C° 0 mm 1 mps 758 mmHg 39%
    01:00 +28°C° 0 mm 1 mps 758 mmHg 38%
    02:00 +28°C° 0 mm 1 mps 758 mmHg 36%
    03:00 +28°C° 0 mm 2 mps 757 mmHg 35%
    04:00 +28°C° 0 mm 2 mps 757 mmHg 33%
    05:00 +28°C° 0 mm 2 mps 757 mmHg 33%
    06:00 +28°C° 0 mm 2 mps 757 mmHg 32%
    07:00 +28°C° 0 mm 2 mps 758 mmHg 32%
    08:00 +31°C° 0 mm 2 mps 758 mmHg 28%
    09:00 +34°C° 0 mm 3 mps 758 mmHg 24%
    10:00 +37°C° 0 mm 3 mps 758 mmHg 20%
    11:00 +38°C° 0 mm 3 mps 758 mmHg 17%
    12:00 +40°C° 0 mm 4 mps 757 mmHg 15%
    13:00 +41°C° 0 mm 4 mps 756 mmHg 12%
    14:00 +41°C° 0 mm 5 mps 756 mmHg 14%
    15:00 +40°C° 0 mm 6 mps 755 mmHg 16%
    16:00 +40°C° 0 mm 6 mps 755 mmHg 17%
    17:00 +38°C° 0 mm 6 mps 755 mmHg 23%
    18:00 +34°C° 0 mm 6 mps 756 mmHg 29%
    19:00 +32°C° 0 mm 5 mps 756 mmHg 34%
    20:00 +32°C° 0 mm 4 mps 757 mmHg 36%
    21:00 +30°C° 0 mm 3 mps 757 mmHg 37%
    22:00 +30°C° 0 mm 2 mps 757 mmHg 38%
    23:00 +29°C° 0 mm 2 mps 757 mmHg 40%

    26 Mayo, Sábado

    Tiempo Temperatura Precipitaciones Viento Presión Humedad
    00:00 +28°C° 0 mm 2 mps 757 mmHg 42%
    01:00 +28°C° 0 mm 2 mps 757 mmHg 43%
    02:00 +28°C° 0 mm 2 mps 757 mmHg 41%
    03:00 +28°C° 0 mm 2 mps 757 mmHg 40%
    04:00 +28°C° 0 mm 2 mps 756 mmHg 38%
    05:00 +28°C° 0 mm 2 mps 757 mmHg 36%
    06:00 +28°C° 0 mm 2 mps 757 mmHg 34%
    07:00 +28°C° 0 mm 2 mps 757 mmHg 32%
    08:00 +30°C° 0 mm 2 mps 758 mmHg 29%
    09:00 +34°C° 0 mm 2 mps 758 mmHg 26%
    10:00 +36°C° 0 mm 2 mps 758 mmHg 22%
    11:00 +37°C° 0 mm 2 mps 757 mmHg 22%
    12:00 +38°C° 0 mm 3 mps 757 mmHg 21%
    13:00 +39°C° 0 mm 3 mps 756 mmHg 20%
    14:00 +37°C° 0 mm 4 mps 756 mmHg 25%
    15:00 +36°C° 0 mm 4 mps 756 mmHg 29%
    16:00 +35°C° 0 mm 4 mps 755 mmHg 34%
    17:00 +33°C° 0 mm 4 mps 756 mmHg 38%
    18:00 +30°C° 0 mm 3 mps 757 mmHg 43%
    19:00 +29°C° 0 mm 2 mps 757 mmHg 48%
    20:00 +29°C° 0 mm 2 mps 758 mmHg 48%
    21:00 +29°C° 0 mm 2 mps 758 mmHg 48%
    22:00 +29°C° 0 mm 1 mps 758 mmHg 48%
    23:00 +28°C° 0 mm 1 mps 758 mmHg 47%

    27 Mayo, Domingo

    Tiempo Temperatura Precipitaciones Viento Presión Humedad
    00:00 +28°C° 0 mm 1 mps 758 mmHg 47%
    01:00 +28°C° 0 mm 1 mps 758 mmHg 46%
    02:00 +28°C° 0 mm 1 mps 758 mmHg 47%
    03:00 +28°C° 0 mm 1 mps 757 mmHg 47%
    04:00 +28°C° 0 mm 1 mps 757 mmHg 47%
    05:00 +28°C° 0 mm 1 mps 758 mmHg 45%
    06:00 +27°C° 0 mm 1 mps 758 mmHg 44%
    07:00 +27°C° 0 mm 1 mps 758 mmHg 43%
    08:00 +30°C° 0 mm 1 mps 759 mmHg 37%
    09:00 +32°C° 0 mm 2 mps 759 mmHg 31%
    10:00 +35°C° 0 mm 2 mps 759 mmHg 25%
    11:00 +36°C° 0 mm 2 mps 758 mmHg 24%
    12:00 +38°C° 0 mm 3 mps 758 mmHg 23%
    13:00 +40°C° 0 mm 4 mps 757 mmHg 22%
    14:00 +37°C° 0 mm 4 mps 757 mmHg 26%
    15:00 +36°C° 0 mm 4 mps 756 mmHg 30%
    16:00 +35°C° 0 mm 4 mps 756 mmHg 34%
    17:00 +33°C° 0 mm 4 mps 757 mmHg 39%
    18:00 +31°C° 0 mm 3 mps 758 mmHg 43%
    19:00 +29°C° 0 mm 2 mps 758 mmHg 48%
    20:00 +29°C° 0 mm 2 mps 759 mmHg 50%
    21:00 +28°C° 0 mm 1 mps 760 mmHg 52%
    22:00 +28°C° 0 mm 1 mps 760 mmHg 54%
    23:00 +28°C° 0 mm 1 mps 760 mmHg 54%

    28 Mayo, Lunes

    Tiempo Temperatura Precipitaciones Viento Presión Humedad
    00:00 +28°C° 0 mm 1 mps 760 mmHg 55%
    01:00 +27°C° 0 mm 1 mps 760 mmHg 56%
    02:00 +27°C° 0 mm 1 mps 760 mmHg 55%
    03:00 +27°C° 0 mm 1 mps 760 mmHg 54%
    04:00 +25°C° 0 mm 0 mps 759 mmHg 53%
    05:00 +27°C° 0 mm 1 mps 760 mmHg 52%
    06:00 +27°C° 0 mm 1 mps 760 mmHg 51%
    07:00 +27°C° 0 mm 1 mps 760 mmHg 50%
    08:00 +29°C° 0 mm 2 mps 761 mmHg 43%
    09:00 +32°C° 0 mm 2 mps 761 mmHg 36%
    10:00 +35°C° 0 mm 3 mps 761 mmHg 29%
    11:00 +36°C° 0 mm 3 mps 760 mmHg 27%
    12:00 +37°C° 0 mm 4 mps 759 mmHg 26%
    13:00 +39°C° 0 mm 5 mps 759 mmHg 24%
    14:00 +37°C° 0 mm 5 mps 758 mmHg 27%
    15:00 +36°C° 0 mm 6 mps 758 mmHg 31%
    16:00 +35°C° 0 mm 6 mps 758 mmHg 35%
    17:00 +33°C° 0 mm 5 mps 758 mmHg 40%
    18:00 +32°C° 0 mm 5 mps 759 mmHg 46%
    19:00 +29°C° 0 mm 4 mps 759 mmHg 51%
    20:00 +28°C° 0 mm 3 mps 759 mmHg 52%
    21:00 +28°C° 0 mm 2 mps 760 mmHg 54%
    22:00 +28°C° 0 mm 2 mps 760 mmHg 55%
    23:00 +28°C° 0 mm 2 mps 760 mmHg 54%
    Mostrar más